Regional Weather Roundup
Issued by NWS

Home | Current Version | Previous Version | Graphics & Text | Print | Product List | Glossary On
Versions: 1 2 3 4 5 6 7 8 9 10 11 12 13 14 15 16 17 18 19 20 21 22 23 24 25 26 27 28 29 30 31 32 33 34 35 36 37 38 39 40 41 42 43 44 45 46 47 48 49 50
000
ASUS45 KTFX 252210
RWRMT
MONTANA REGIONAL WEATHER ROUNDUP
NATIONAL WEATHER SERVICE GREAT FALLS MT
400 PM MDT MON MAY 25 2015

NOTE: "FAIR" INDICATES FEW OR NO CLOUDS BELOW 12000 FEET WITH NO
SIGNIFICANT WEATHER AND/OR OBSTRUCTIONS TO VISIBILITY.

MTZ001>007-043-252300-
WEST OF THE DIVIDE

CITY           SKY/WX    TMP DP  RH WIND       PRES   REMARKS
KALISPELL      CLOUDY    65  46  50 CALM      29.88F
MISSOULA       CLOUDY    59  49  69 NW16G30   29.91R
BUTTE          PTSUNNY   65  31  28 NW9       29.89F
MULLAN PASS    FOG       45  44  97 VRB3      29.99S VSB 1/2
DEER LODGE       N/A     61  43  51 W10       29.90S
EUREKA           N/A     66  43  42 S3        29.88F
HAMILTON         N/A     63  41  45 NE6       29.87R
LIBBY            N/A     59  52  77 SE5       29.92S
RONAN            N/A     58  48  69 W9        29.99R
$$

MTZ008-052>055-252300-
SOUTHWEST MONTANA

CITY           SKY/WX    TMP DP  RH WIND       PRES   REMARKS
BOZEMAN        SUNNY     67  43  41 VRB5      29.88F
DILLON         MOSUNNY   67  39  35 NW6       29.87F
W YELLOWSTONE  PTSUNNY   55  36  47 NE7       29.96S
THREE FORKS      N/A     69  62  78 SE3       29.88F
TWIN BRIDGES     N/A     69  36  29 S6        29.88F
$$

MTZ009-010-012-014-046-048-049-054-252300-
EAST SLOPES AND CENTRAL MONTANA

CITY           SKY/WX    TMP DP  RH WIND       PRES   REMARKS
CUT BANK       PTSUNNY   68  38  33 SE10G22   29.85F
GREAT FALLS    PTSUNNY   70  42  36 SE10      29.84F
HELENA         MOSUNNY   72  43  35 SE10      29.84F
CONRAD           N/A     72  43  35 NE12      29.89F
$$

MTZ011-013-016-021-045-047-050-051-252300-
NORTH CENTRAL MONTANA

CITY           SKY/WX    TMP DP  RH WIND       PRES   REMARKS
HAVRE          MOSUNNY   76  31  19 CALM      29.82F
LEWISTOWN      PTSUNNY   70  45  40 N6        29.88F
N BAR RANCH    FAIR      63  43  48 E6        29.93F
CHINOOK          N/A     75  34  22 E8        29.83F
FORT BENTON      N/A     73  39  29 E8        29.84F
$$

MTZ017>020-022>027-061-062-252300-
NORTHEAST MONTANA

CITY           SKY/WX    TMP DP  RH WIND       PRES   REMARKS
GLASGOW        SUNNY     78  36  21 CALM      29.82F
JORDAN           N/A     75  41  29 VRB6      29.84F
SIDNEY         SUNNY     73  46  38 CALM      29.87S
WOLF POINT     PTSUNNY   74  49  41 S14G21    29.86S
MALTA            N/A     76  42  29 CALM      29.81F
POPLAR           N/A     73  45  35 S14       29.87S
SCOBEY           N/A     78  39  24 E5        29.85F
$$

MTZ028>42-056>058-252300-
SOUTHCENTRAL AND SOUTHEAST MONTANA

CITY           SKY/WX    TMP DP  RH WIND       PRES   REMARKS
BAKER          CLOUDY    65  51  60 E12       29.91F
BILLINGS       MOSUNNY   68  45  43 SE6       29.89F
LIVINGSTON     SUNNY     68  41  37 E7        29.88F
MILES CITY     CLOUDY    64  48  56 N10       29.89S
BIG TIMBER       N/A     66  39  37 E7        29.90F
EKALAKA          N/A     60  50  69 E5        29.91R
FORSYTH          N/A     64  52  63 E10G17    29.88R
LAUREL           N/A     68  41  37 E3        29.89F
ROUNDUP          N/A     70  45  40 NW6       29.81F
$$

REGIONAL REPORTS...DAKOTAS

CITY           SKY/WX    TMP DP  RH WIND       PRES   REMARKS
WILLISTON      PTSUNNY   75  41  29 CALM      29.84S
MINOT          SUNNY     78  42  27 NE7       29.80F
DICKINSON      CLOUDY    66  47  50 SE12      29.88S
BEACH          FAIR      63  52  67 SE10      29.91F
CROSBY         FAIR      77  34  20 SW8       29.83F
WATFORD CITY   MOCLDY    72  46  40 S3        29.84S
BISMARCK       PTSUNNY   70  55  59 W12       29.84F
GRAND FORKS    CLOUDY    74  50  42 S10       29.75S
FARGO          CLOUDY    65  53  65 N7        29.79R
BUFFALO SD       N/A     58  53  84 E10       29.84S
RAPID CITY     LGT RAIN  56  54  93 N5        29.86S
$$

REGIONAL REPORTS...WYOMING/IDAHO/WASHINGTON

CITY           SKY/WX    TMP DP  RH WIND       PRES   REMARKS
GILLETTE       CLOUDY    57  49  74 NE6       29.92S
SHERIDAN       PTSUNNY   61  49  64 N13       29.92F
BUFFALO WY     PTSUNNY   57  46  66 VRB3      29.95S
CODY           MOSUNNY   55  43  62 W3        29.94F
YELLOWSTONE LA   N/A     48  40  73 CALM      30.05F
IDAHO FALLS    TSTM      62  48  60 S7        29.91F
SALMON         PTSUNNY   70  41  35 S5        29.84F
BOISE          LGT RAIN  72  41  33 VRB3      29.84R
SPOKANE        TSTM      61  52  72 E3        29.89S
$$

REGIONAL REPORTS...ALBERTA

CITY           SKY/WX    TMP DP  RH WIND       PRES   REMARKS
EDMONTON       PTSUNNY   79  36  21 SW9       29.82S
CALGARY        CLOUDY    70  37  30 S10G20    29.86S
LETHBRIDGE     PTSUNNY   75  39  27 SE13G23   29.81F
MEDICINE HAT   PTSUNNY   79  37  22 VRB3G22   29.82F
$$

REGIONAL REPORTS...SASKATCHEWAN

CITY           SKY/WX    TMP DP  RH WIND       PRES   REMARKS
SWIFT CURRENT  PTSUNNY   73  36  25 N13G25    29.86S
REGINA         PTSUNNY   77  41  27 S9        29.83F
SASKATOON      PTSUNNY   79  32  18 W7        29.82S
$$



USA.gov is the U.S. government's official web portal to all federal, state and local government web resources and services.